Paynesville, MN

1:10 AM CDT on April 21, 2018 (GMT -0500)
Paynesville

Weather History for KPEX - April, 2014

Change the Weather History Date:

Friday, April 11, 2014

  Actual Average (KLJF) Record (KLJF)
Temperature  
Mean Temperature 48 °F -  
Max Temperature 60 °F 54 °F 83 °F (1968)
Min Temperature 37 °F 32 °F 14 °F (1957)
Degree Days  
Heating Degree Days 16    
Moisture  
Dew Point 32 °F    
Average Humidity 55    
Maximum Humidity 89    
Minimum Humidity 27    
Precipitation  
Precipitation 0.00 in - - ()
Sea Level Pressure  
Sea Level Pressure 29.93 in    
Wind  
Wind Speed 1 mph (NNW)    
Max Wind Speed 10 mph    
Max Gust Speed 17 mph    
Visibility 10 miles    
Events      
Averages and records for this station are not official NWS values.
T = Trace of Precipitation, MM = Missing Value Source: NWS Daily Summary

Daily Weather History Graph

Daily Weather History Graph

Search for Another Location

Airport or City:

Astronomy

Apr. 11, 2014 Rise Set
Actual Time 6:40 AM CDT 7:59 PM CDT
Civil Twilight 6:10 AM CDT 8:30 PM CDT
Nautical Twilight 5:33 AM CDT 9:07 PM CDT
Astronomical Twilight 4:54 AM CDT 9:46 PM CDT
Moon 4:32 PM CDT (4/11) 4:46 AM CDT (4/11)
Length of Visible Light 14h 20m
Length of Day
13h 19m
Waxing Gibbous, 87% of the Moon is Illuminated
Apr 11
Waxing Gibbous
Apr 15
Full
Apr 22
Last Quarter
Apr 29
New
May 6
First Quarter

Hourly Weather History & Observations

Time (CDT) Temp. Windchill Dew Point Humidity Pressure Visibility Wind Dir Wind Speed Gust Speed Precip Events Conditions
12:12 AM 37.4 °F - 29.8 °F 74% 29.92 in 10.0 mi Calm Calm - N/A   Overcast
12:32 AM 37.6 °F - 30.6 °F 76% 29.93 in 10.0 mi Calm Calm - N/A   Overcast
12:52 AM 37.8 °F - 32.0 °F 80% 29.92 in 10.0 mi Calm Calm - N/A   Overcast
1:12 AM 37.6 °F - 32.0 °F 80% 29.93 in 10.0 mi Calm Calm - N/A   Overcast
1:33 AM 38.3 °F - 32.2 °F 79% 29.93 in 10.0 mi Calm Calm - N/A   Overcast
1:52 AM 38.3 °F - 32.2 °F 79% 29.94 in 10.0 mi Calm Calm - N/A   Overcast
2:12 AM 37.6 °F - 33.3 °F 84% 29.93 in 10.0 mi Calm Calm - N/A   Overcast
2:32 AM 39.0 °F - 33.1 °F 79% 29.93 in 10.0 mi Calm Calm - N/A   Overcast
2:52 AM 39.0 °F - 32.7 °F 78% 29.94 in 10.0 mi Calm Calm - N/A   Overcast
3:12 AM 38.8 °F - 32.5 °F 78% 29.94 in 10.0 mi Calm Calm - N/A   Overcast
3:33 AM 43.3 °F - 30.4 °F 60% 29.94 in 10.0 mi Calm Calm - N/A   Overcast
3:52 AM 43.7 °F 38.6 °F 31.6 °F 63% 29.95 in 10.0 mi North 9.2 mph - N/A   Overcast
4:12 AM 42.8 °F 40.1 °F 32.5 °F 67% 29.96 in 10.0 mi North 4.6 mph - N/A   Overcast
4:32 AM 42.3 °F - 32.4 °F 68% 29.94 in 10.0 mi Calm Calm - N/A   Overcast
4:52 AM 41.9 °F - 32.5 °F 69% 29.94 in 10.0 mi Calm Calm - N/A   Overcast
5:12 AM 41.0 °F 39.0 °F 33.1 °F 73% 29.93 in 10.0 mi NE 3.5 mph - N/A   Overcast
5:32 AM 41.2 °F - 32.9 °F 72% 29.92 in 10.0 mi Calm Calm - N/A   Overcast
5:52 AM 41.2 °F - 32.7 °F 72% 29.91 in 10.0 mi Calm Calm - N/A   Overcast
6:12 AM 40.3 °F 34.4 °F 34.0 °F 78% 29.89 in 10.0 mi ESE 9.2 mph - N/A   Mostly Cloudy
6:32 AM 40.1 °F 36.1 °F 34.9 °F 82% 29.91 in 10.0 mi NE 5.8 mph - N/A   Mostly Cloudy
6:52 AM 38.7 °F - 34.9 °F 86% 29.93 in 10.0 mi Calm Calm - N/A   Scattered Clouds
7:12 AM 38.5 °F - 35.4 °F 89% 29.94 in 10.0 mi Calm Calm - N/A   Clear
7:32 AM 38.8 °F 36.5 °F 35.8 °F 89% 29.94 in 10.0 mi NE 3.5 mph - N/A   Clear
7:52 AM 39.7 °F - 36.3 °F 88% 29.95 in 10.0 mi Calm Calm - N/A   Clear
8:12 AM 41.0 °F 37.1 °F 36.7 °F 85% 29.95 in 10.0 mi ENE 5.8 mph - N/A   Clear
8:32 AM 42.4 °F - 36.9 °F 81% 29.95 in 10.0 mi Calm Calm - N/A   Clear
8:52 AM 44.2 °F 42.7 °F 36.7 °F 75% 29.95 in 10.0 mi East 3.5 mph - N/A   Clear
9:12 AM 45.7 °F - 36.5 °F 70% 29.95 in 10.0 mi Calm Calm - N/A   Clear
9:32 AM 46.6 °F - 36.7 °F 68% 29.95 in 10.0 mi Calm Calm - N/A   Clear
9:52 AM 47.5 °F - 37.0 °F 67% 29.95 in 10.0 mi Calm Calm - N/A   Clear
10:13 AM 48.7 °F - 36.3 °F 62% 29.94 in 10.0 mi Calm Calm - N/A   Clear
10:33 AM 50.0 °F - 34.9 °F 56% 29.95 in 10.0 mi SE 4.6 mph - N/A   Clear
10:52 AM 50.7 °F - 32.5 °F 50% 29.95 in 10.0 mi Calm Calm - N/A   Clear
11:12 AM 52.2 °F - 34.3 °F 51% 29.96 in 10.0 mi Calm Calm - N/A   Clear
11:32 AM 52.5 °F - 34.5 °F 50% 29.96 in 10.0 mi Calm Calm - N/A   Clear
11:52 AM 53.6 °F - 34.5 °F 48% 29.96 in 10.0 mi SW 3.5 mph - N/A   Clear
12:11 PM 54.7 °F - 34.5 °F 47% 29.96 in 10.0 mi West 5.8 mph - N/A   Clear
12:32 PM 55.0 °F - 33.3 °F 44% 29.96 in 10.0 mi Calm Calm - N/A   Scattered Clouds
12:52 PM 56.7 °F - 34.0 °F 42% 29.96 in 10.0 mi Calm Calm - N/A   Mostly Cloudy
1:12 PM 56.7 °F - 31.3 °F 38% 29.96 in 10.0 mi Calm Calm - N/A   Scattered Clouds
1:52 PM 59.4 °F - 33.3 °F 37% 29.95 in 10.0 mi NW 10.4 mph 17.3 mph N/A   Scattered Clouds
2:12 PM 57.0 °F - 29.8 °F 36% 29.95 in 10.0 mi NNW 5.8 mph - N/A   Scattered Clouds
2:31 PM 57.9 °F - 30.9 °F 36% 29.94 in 10.0 mi Calm Calm - N/A   Scattered Clouds
2:53 PM 59.4 °F - 31.3 °F 35% 29.94 in 10.0 mi NNW 5.8 mph - N/A   Clear
3:12 PM 59.9 °F - 29.7 °F 32% 29.93 in 10.0 mi NNW 4.6 mph - N/A   Scattered Clouds
3:32 PM 60.1 °F - 28.6 °F 30% 29.93 in 10.0 mi WNW 8.1 mph - N/A   Scattered Clouds
3:53 PM 60.1 °F - 28.0 °F 30% 29.92 in 10.0 mi West 4.6 mph - N/A   Clear
4:13 PM 60.3 °F - 28.4 °F 30% 29.92 in 10.0 mi West 10.4 mph - N/A   Scattered Clouds
4:32 PM 60.6 °F - 27.7 °F 29% 29.92 in 10.0 mi WNW 8.1 mph - N/A   Clear
4:52 PM 60.1 °F - 27.3 °F 29% 29.91 in 10.0 mi Calm Calm - N/A   Clear
5:12 PM 59.9 °F - 25.3 °F 27% 29.91 in 10.0 mi WNW 5.8 mph - N/A   Clear
5:32 PM 59.2 °F - 27.3 °F 30% 29.91 in 10.0 mi Calm Calm - N/A   Clear
5:52 PM 59.4 °F - 25.7 °F 28% 29.90 in 10.0 mi Calm Calm - N/A   Clear
6:13 PM 59.0 °F - 27.1 °F 30% 29.90 in 10.0 mi Calm Calm - N/A   Clear
6:32 PM 58.6 °F - 25.5 °F 28% 29.90 in 10.0 mi Calm Calm - N/A   Clear
6:52 PM 58.1 °F - 26.4 °F 30% 29.90 in 10.0 mi Calm Calm - N/A   Clear
7:13 PM 57.0 °F - 27.5 °F 32% 29.90 in 10.0 mi Calm Calm - N/A   Clear
7:32 PM 56.1 °F - 30.6 °F 38% 29.90 in 10.0 mi Calm Calm - N/A   Clear
7:52 PM 55.0 °F - 32.2 °F 42% 29.90 in 10.0 mi Calm Calm - N/A   Clear
8:12 PM 54.1 °F - 33.3 °F 45% 29.91 in 10.0 mi Calm Calm - N/A   Clear
8:32 PM 54.5 °F - 29.7 °F 39% 29.91 in 10.0 mi Calm Calm - N/A   Clear
8:52 PM 54.1 °F - 31.3 °F 42% 29.91 in 10.0 mi Calm Calm - N/A   Scattered Clouds
9:12 PM 53.4 °F - 31.8 °F 44% 29.91 in 10.0 mi Calm Calm - N/A   Scattered Clouds
9:32 PM 52.9 °F - 32.0 °F 45% 29.91 in 10.0 mi Calm Calm - N/A   Scattered Clouds
9:52 PM 52.2 °F - 32.9 °F 48% 29.91 in 10.0 mi Calm Calm - N/A   Overcast
10:12 PM 51.8 °F - 33.3 °F 49% 29.91 in 10.0 mi Calm Calm - N/A   Overcast
10:32 PM 52.2 °F - 31.8 °F 46% 29.90 in 10.0 mi Calm Calm - N/A   Overcast
10:52 PM 50.5 °F - 32.9 °F 51% 29.89 in 10.0 mi Calm Calm - N/A   Mostly Cloudy
11:12 PM 51.6 °F - 31.6 °F 46% 29.89 in 10.0 mi SE 3.5 mph - N/A   Scattered Clouds
11:32 PM 50.7 °F - 32.0 °F 49% 29.87 in 10.0 mi ESE 3.5 mph - N/A   Mostly Cloudy
11:52 PM 52.7 °F - 30.9 °F 43% 29.86 in 10.0 mi Calm Calm - N/A   Overcast